Location: Newark
(40.4833°N, 25.5167°E)
Time: 06:06:42
(UTC+00:00)

LightSail 2 - Visible Passes

Search period start: 17 October 2019 00:00
Search period end: 27 October 2019 00:00
Orbit: 707 x 722 km, 24.0° (Epoch: 16 October)

Date Brightness Start Highest point End Pass type
(mag) Time Alt. Az. Time Alt. Az. Time Alt. Az.
17 Oct 7.5 17:04:06 10° SSW 17:05:46 11° S 17:07:26 10° SSE visible
18 Oct 7.5 16:06:29 10° SSW 16:08:26 12° S 16:10:23 10° SSE visible
20 Oct 7.7 15:57:11 10° SSW 15:58:24 11° S 15:59:36 10° S visible
